YLRE

Details ICAO YLRE (LRE)
Name Longreach
Region Australia
Timezone Australia/Brisbane (UTC+10.0)
Plans Departing 147
Arriving 169
Stats Elevation 626 ft / 191 m (AMSL)
Location -23.432000° 144.278000°
Runways 1
Magnetic Variation 7.440° E
Sunrise 2020-02-25 20:17:51 UTC / 2020-02-26 06:17:51 Local
Sunset 2020-02-26 08:57:02 UTC / 2020-02-26 18:57:02 Local
Advertisement - Login to hide

Runways

ID Width Length Bearing (true/mag) Surface Threshold Overrun Markings Lighting
04 98 ft / 30 m 6,339 ft / 1,932 m 46.50° / 39.06° ASPHALT 0 ft / 0 m 0 ft / 0 m PREC-APP EDGE THRESHOLD
22 98 ft / 30 m 6,339 ft / 1,932 m 226.50° / 219.06° ASPHALT 0 ft / 0 m 0 ft / 0 m PREC-APP EDGE THRESHOLD

Map

Weather


0- 5 10 15 20 25 30 35+ Temperature / °C

Clouds and Precipitation
Forecast for 2020-02-26 06:00 UTC. Updated 3 hours ago

Ground ~20,000 ft ~40,000 ft Winds

METAR

YLRE 260700Z AUTO 18012KT 170V230 9999 // SCT054 33/21 Q1006

TAF

Not found
Warning: Do not use this data for real-world aviation or navigation. No guarantee of current accuracy is given.